EW7133 Weather Reports


time (UTC)temp
C
wind
direction
speed
KPH
gust
KPH
rain 1hr
cm
rain 24hr
cm
rain mn
cm
humidity
%
barometer
mb
20260510153040 18 268 0.0 0.0 0.00 0.46 0.00 82 1012.7
20260510151519 17 233 0.0 0.0 0.00 0.48 0.00 86 1012.7
20260510150017 16 198 0.0 0.0 0.00 0.48 0.00 88 1012.6
20260510144615 16 198 0.0 0.0 0.00 0.48 0.00 91 1012.7
20260510143107 15 208 0.0 0.0 0.00 0.48 0.00 96 1012.7
20260510141550 15 246 0.0 0.0 0.00 0.48 0.00 99 1012.7
20260510140048 13 360 0.0 0.0 0.00 0.48 0.00 100 1012.6
20260510134602 13 244 0.0 0.0 0.00 0.48 0.00 100 1012.4
20260510133039 12 230 0.0 0.0 0.00 0.48 0.00 100 1012.5
20260510131537 11 261 0.0 0.0 0.00 0.48 0.00 100 1012.6
20260510130034 11 360 0.0 0.0 0.00 0.48 0.00 100 1012.8
20260510124532 11 360 0.0 0.0 0.00 0.48 0.00 100 1012.8
20260510123012 11 229 0.0 0.0 0.00 0.48 0.00 100 1012.5
20260510121510 10 253 0.0 0.0 0.00 0.48 0.48 100 1012.2
20260510120052 10 360 0.0 0.0 0.00 0.48 0.48 100 1012.0
20260510114551 10 360 0.0 0.0 0.00 0.48 0.48 100 1011.9
20260510113031 10 246 0.0 0.0 0.00 0.48 0.48 100 1011.7
20260510111533 10 246 0.0 0.0 0.00 0.48 0.48 100 1011.5
20260510110014 10 126 0.0 0.0 0.00 0.48 0.48 100 1011.3
20260510104514 10 126 0.0 0.0 0.00 0.48 0.48 100 1011.3
20260510103002 10 87 0.0 0.0 0.00 0.48 0.48 100 1011.2
20260510101600 10 87 0.0 0.0 0.00 0.48 0.48 100 1010.9
20260510100105 10 87 0.0 0.0 0.00 0.48 0.48 100 1010.7
20260510094559 10 104 0.0 0.0 0.00 0.48 0.48 100 1010.8
20260510093101 10 84 0.0 0.0 0.00 0.48 0.48 100 1010.8
20260510091558 10 89 0.0 0.0 0.00 0.48 0.48 100 1010.8
20260510090059 10 98 0.0 0.0 0.00 0.48 0.48 100 1010.8
20260510084557 10 123 0.0 0.0 0.00 0.48 0.48 100 1010.9
20260510083039 10 97 0.0 0.0 0.00 0.48 0.48 100 1011.2
20260510081542 10 123 0.0 0.0 0.00 0.48 0.48 100 1011.3
20260510080021 10 236 0.0 0.0 0.00 0.48 0.48 100 1011.4
20260510074521 10 236 0.0 0.0 0.00 0.48 0.48 100 1011.4
20260510073002 10 254 0.0 0.0 0.00 0.48 0.48 100 1011.2
20260510071501 9 200 0.0 0.0 0.00 0.48 0.48 100 1010.7
20260510070046 9 200 0.0 0.0 0.00 0.48 0.48 100 1010.6
20260510064544 9 200 0.0 0.0 0.00 0.48 0.48 99 1010.8
20260510063027 9 200 0.0 0.0 0.00 0.48 0.48 99 1010.8
20260510061531 9 200 0.0 0.0 0.03 0.48 0.48 99 1011.0
20260510060014 10 200 0.0 0.0 0.03 0.48 0.48 99 1011.0
20260510054507 10 149 0.0 0.0 0.03 0.48 0.48 99 1010.8
20260510053052 10 146 0.0 0.0 0.03 0.48 0.48 99 1010.6
20260510051622 10 146 0.0 0.0 0.00 0.46 0.46 99 1010.5
20260510050030 10 145 0.0 0.0 0.00 0.46 0.46 100 1010.6
20260510044533 10 80 0.0 0.0 0.00 0.46 0.46 99 1010.6
20260510043012 10 86 0.0 0.0 0.00 0.46 0.46 99 1010.8
20260510041516 10 88 0.0 0.0 0.00 0.46 0.46 99 1010.7
20260510040054 10 72 0.0 0.0 0.00 0.46 0.46 99 1010.8
20260510034555 10 94 0.0 0.0 0.00 0.46 0.46 99 1010.6
20260510033039 10 86 0.0 0.0 0.00 0.46 0.46 99 1010.4
20260510031604 10 80 0.0 0.0 0.00 0.46 0.46 99 1010.5
20260510030024 9 79 0.0 0.0 0.00 0.46 0.46 98 1010.4
20260510024522 10 69 0.0 0.0 0.00 0.46 0.46 98 1010.3
20260510023036 10 67 0.0 0.0 0.00 0.46 0.46 98 1010.1
20260510021520 10 68 0.0 0.0 0.00 0.46 0.46 98 1010.4
20260510020018 10 74 0.0 0.0 0.00 0.46 0.46 98 1010.2
20260510014517 10 71 0.0 0.0 0.00 0.46 0.46 98 1010.2
20260510013015 11 77 0.0 0.0 0.00 0.46 0.46 97 1010.2
20260510011521 11 82 0.0 0.0 0.00 0.46 0.46 97 1010.1
20260510010107 11 81 0.0 0.0 0.00 0.46 0.46 96 1010.1
20260510004558 11 86 0.0 0.0 0.00 0.46 0.46 95 1009.8
20260510003039 12 96 0.0 0.0 0.00 0.46 0.46 94 1009.6
20260510001539 12 58 0.0 0.0 0.00 0.46 0.46 93 1009.4
20260510000020 12 129 0.0 0.0 0.00 0.46 0.46 92 1009.3
20260509234520 13 182 0.0 0.0 0.00 0.46 0.46 90 1009.3
20260509233003 13 189 0.0 0.0 0.00 0.46 0.46 89 1009.2
20260509231502 13 164 0.0 0.0 0.00 0.46 0.46 88 1009.1
20260509230045 13 251 0.0 0.0 0.00 0.46 0.46 87 1009.0
20260509224543 14 199 0.0 0.0 0.00 0.46 0.46 88 1009.1
20260509223027 14 223 0.0 0.0 0.00 0.46 0.46 90 1009.2
20260509221526 14 218 0.0 0.0 0.00 0.46 0.46 91 1009.2
20260509220002 13 194 0.0 0.0 0.00 0.46 0.46 93 1009.2
20260509214502 13 360 0.0 0.0 0.00 0.46 0.46 94 1009.3
20260509213058 13 253 0.0 0.0 0.00 0.46 0.46 95 1009.3
20260509211608 13 207 0.0 0.0 0.00 0.46 0.46 95 1009.6
20260509210025 13 253 0.0 0.0 0.00 0.46 0.46 96 1009.6
20260509204524 13 253 0.0 0.0 0.00 0.46 0.46 96 1009.6
20260509203010 12 269 0.0 0.0 0.03 0.46 0.46 97 1009.6
20260509201504 12 269 0.0 0.0 0.05 0.46 0.46 97 1009.7
20260509200047 12 269 0.0 0.0 0.08 0.46 0.46 97 1009.7
20260509194546 12 225 0.0 0.0 0.13 0.46 0.46 97 1010.0
20260509193024 12 259 0.0 0.0 0.13 0.43 0.43 97 1010.7
20260509191523 12 257 0.0 0.0 0.13 0.41 0.41 97 1010.9
20260509190006 12 264 0.0 0.0 0.10 0.38 0.38 97 1010.9
20260509184504 12 248 0.0 0.0 0.15 0.33 0.33 96 1010.9
20260509183047 12 265 0.0 0.0 0.20 0.30 0.30 97 1010.9
20260509181603 12 254 0.0 0.0 0.20 0.28 0.28 96 1011.0
20260509180029 12 229 0.0 0.0 0.23 0.28 0.28 95 1011.0
20260509174530 12 263 0.0 0.0 0.15 0.18 0.18 94 1010.7
20260509173013 12 217 0.0 0.0 0.08 0.10 0.10 93 1011.2
20260509171513 13 221 0.0 0.0 0.05 0.08 0.08 92 1011.2
20260509170012 13 252 0.0 0.0 0.00 0.03 0.03 91 1011.1
20260509164511 13 225 0.0 0.0 0.00 0.03 0.03 89 1011.0
20260509163011 13 226 0.0 0.0 0.00 0.03 0.03 89 1011.1
20260509161512 13 259 0.0 0.0 0.00 0.03 0.03 88 1011.2
20260509160010 13 213 0.0 0.0 0.03 0.03 0.03 89 1011.1
20260509154510 13 194 0.0 0.0 0.03 0.03 0.03 90 1011.2